Weather History for GEML - December, 2012

Change the Weather History Date:

Friday, December 28, 2012

  Actual Average Record
Temperature  
Mean Temperature 54 °F -  
Max Temperature 64 °F 62 °F 84 °F (1998)
Min Temperature 44 °F 50 °F 44 °F (2012)
Degree Days  
Heating Degree Days 11    
Growing Degree Days 4 (Base 50)    
Moisture  
Dew Point 47 °F    
Average Humidity 72    
Maximum Humidity 93    
Minimum Humidity 43    
Precipitation  
Precipitation 0.00 in 0.06 in - ()
Sea Level Pressure  
Sea Level Pressure 30.44 in    
Wind  
Wind Speed 3 mph ()    
Max Wind Speed 10 mph    
Max Gust Speed -    
Visibility 19.0 miles    
Events      
Averages and records for this station are not official NWS values.
T = Trace of Precipitation, MM = Missing Value Source: Averaged Metar Reports

Daily Weather History Graph

Daily Weather History Graph

Search for Another Location

Airport or City:

Trip Planner

Search our weather history database for the weather conditions in past years. The results will help you decide how hot, cold, wet, or windy it might be!

Date:

Astronomy

Dec. 28, 2012 Rise Set
Actual Time 8:19 AM CET 6:07 PM CET
Civil Twilight 7:51 AM CET 6:35 PM CET
Nautical Twilight 7:19 AM CET 7:07 PM CET
Astronomical Twilight 6:48 AM CET 7:38 PM CET
Moon 6:29 PM CET (12/28) 8:05 AM CET (12/28)
Length of Visible Light 10h 44m
Length of Day
9h 48m
Full, 100% of the Moon is Illuminated
Dec 28
Full
Jan 5
Last Quarter
Jan 11
New
Jan 19
First Quarter
Jan 27
Full

Hourly Weather History & Observations

Time (CET) Temp. Windchill Dew Point Humidity Pressure Visibility Wind Dir Wind Speed Gust Speed Precip Events Conditions
6:00 AM 44.6 °F - 42.8 °F 93% 30.45 in - Variable 1.2 mph - N/A   Clear
6:30 AM 46.4 °F - 42.8 °F 87% 30.45 in - WSW 2.3 mph - N/A   Clear
7:00 AM 48 °F - 39 °F 61% 30.44 in 19 mi West 2.3 mph - -  
7:30 AM 44.6 °F - 42.8 °F 93% 30.45 in - West 2.3 mph - N/A   Clear
8:00 AM 46.4 °F 45.2 °F 44.6 °F 93% 30.45 in - WSW 3.5 mph - N/A   Clear
8:30 AM 44.6 °F - 41.0 °F 87% 30.45 in - Calm Calm - N/A   Clear
9:00 AM 48.2 °F - 44.6 °F 87% 30.45 in - Variable 2.3 mph - N/A   Clear
9:30 AM 48.2 °F - 44.6 °F 87% 30.48 in - Calm Calm - N/A   Clear
10:00 AM 51.8 °F - 48.2 °F 88% 30.48 in - Calm Calm - N/A   Clear
10:30 AM 55.4 °F - 48.2 °F 77% 30.48 in - Calm Calm - N/A   Clear
11:00 AM 57.2 °F - 48.2 °F 72% 30.48 in - Variable 1.2 mph - N/A   Clear
11:30 AM 59.0 °F - 48.2 °F 67% 30.48 in - Variable 1.2 mph - N/A   Clear
12:00 PM 60.8 °F - 46.4 °F 59% 30.48 in - Variable 2.3 mph - N/A   Clear
12:30 PM 62.6 °F - 46.4 °F 55% 30.48 in - ESE 9.2 mph - N/A   Clear
1:00 PM 63 °F - 46 °F 43% 30.46 in 19 mi ESE 10.4 mph - -  
1:00 PM 62.6 °F - 46.4 °F 55% 30.45 in - ESE 10.4 mph - N/A   Clear
1:30 PM 64.4 °F - 46.4 °F 52% 30.45 in - SE 10.4 mph - N/A   Clear
2:00 PM 64.4 °F - 48.2 °F 56% 30.42 in - ESE 10.4 mph - N/A   Clear
2:30 PM 64.4 °F - 46.4 °F 52% 30.42 in - ESE 10.4 mph - N/A   Clear
3:00 PM 64.4 °F - 46.4 °F 52% 30.42 in - ESE 10.4 mph - N/A   Clear
3:30 PM 64.4 °F - 48.2 °F 56% 30.42 in - ESE 10.4 mph - N/A   Clear
4:00 PM 62.6 °F - 50.0 °F 63% 30.42 in - East 9.2 mph - N/A   Clear
4:30 PM 60.8 °F - 50.0 °F 68% 30.42 in - East 8.1 mph - N/A   Clear
5:00 PM 60.8 °F - 51.8 °F 72% 30.42 in - East 5.8 mph - N/A   Clear
5:30 PM 60.8 °F - 51.8 °F 72% 30.42 in - Variable 2.3 mph - N/A   Clear
6:00 PM 59.0 °F - 51.8 °F 77% 30.42 in - Variable 2.3 mph - N/A   Clear
6:30 PM 57.2 °F - 51.8 °F 82% 30.42 in - SE 1.2 mph - N/A   Clear
7:00 PM 56 °F - 51 °F 77% 30.43 in 19 mi Calm Calm - -  
7:00 PM 55.4 °F - 50.0 °F 82% 30.42 in - South 1.2 mph - N/A   Clear
7:30 PM 53.6 °F - 50.0 °F 88% 30.42 in - Variable 2.3 mph - N/A   Clear